Tracking 19846 objects as of 20-Sep-2019
HD Live streaming from Space Station
objects crossing your sky now

KAITUO 1A

Track KAITUO 1A now!
10-day predictions
KAITUO 1A is classified as:


NORAD ID: 40904
Int'l Code: 2015-049F
Perigee: 517.8 km
Apogee: 535.8 km
Inclination: 97.5 °
Period: 95.0 minutes
Semi major axis: 6897 km
RCS: Unknown
Launch date: September 19, 2015
Source: People's Republic of China (PRC)
Launch site: Taiyaun Space Center, China (TSC)
aabbcc
Your satellite tracking list
Your tracking list is empty




NASA's NSSDC Master Catalog

Two Line Element Set (TLE):
1 40904U 15049F   19262.77315760  .00000165  00000-0  12225-4 0  9990
2 40904  97.4694 263.2030 0013069 244.4942 215.8705 15.15429593221098
Source of the keplerian elements: AFSPC